Wind_Speed
30 30 30 30 31 32 33 35 37 38 40 40 41 43 45 47 51 54 56 58 59 59 60 61 61 62 61 59 58 58 57 57 57 57 56 56 55 54 53 52 52 53 54 57 58 58 58 57 56 54 52 51 51 51 51 53 55 56 56 52 46 43 42 43 43 44 46 48 50 52 53 55 56 57 57 58 58 59 60 62 63 64 65 66 66
30 30 30 30 31 32 34 36 37 39 40 41 42 42 43 45 47 49 52 54 56 58 59 59 60 61 62 61 59 58 58 57 57 56 55 53 52 51 51 53 55 58 59 60 59 58 56 55 54 53 51 51 52 53 55 56 56 54 50 45 43 42 43 43 44 46 48 50 52 53 54 56 57 57 58 58 59 60 61 63 64 65 66 66 67
30 30 30 30 31 32 33 35 36 37 38 39 40 41 42 44 45 46 48 50 52 53 54 54 55 56 58 60 60 60 59 58 57 57 56 55 55 56 57 59 61 61 60 59 58 56 55 54 53 52 52 53 55 57 56 55 51 47 44 42 43 43 43 44 46 47 50 52 53 54 55 57 57 57 58 59 60 61 62 64 65 66 67 67 67
29 30 30 31 32 33 34 35 35 36 37 38 39 40 40 41 43 44 46 48 50 51 51 52 51 52 53 55 56 58 59 59 58 58 59 59 58 59 59 59 59 58 57 56 56 55 54 54 54 55 56 57 56 54 51 48 45 43 43 43 43 44 44 46 47 49 52 53 54 55 56 57 58 58 59 60 60 62 63 65 66 67 68 68 68
29 30 31 31 32 33 34 34 35 36 37 37 38 39 39 40 41 43 45 47 49 50 50 51 52 52 54 53 52 52 54 55 55 56 56 56 56 56 56 56 56 56 56 56 56 56 56 57 57 57 55 52 49 47 45 44 43 42 43 43 44 45 46 47 49 52 53 54 55 56 57 58 58 59 60 61 62 63 64 65 67 68 69 69 69
30 31 31 32 32 32 33 33 34 35 36 37 37 38 38 39 40 41 43 46 48 50 51 52 53 54 54 55 54 54 54 54 55 55 55 56 56 56 57 58 58 58 58 58 57 56 55 54 51 49 47 45 43 43 43 43 42 43 43 44 45 46 47 49 51 53 54 55 56 57 58 59 59 60 61 62 63 64 65 66 68 69 69 70 71
30 31 31 31 31 31 32 32 33 34 35 36 36 37 37 38 38 39 41 43 45 48 49 51 53 54 54 55 57 57 57 57 56 56 56 55 55 55 55 54 54 53 51 50 49 48 46 44 43 43 43 42 42 43 43 43 43 44 44 45 46 48 50 51 53 54 54 55 56 58 59 59 60 61 62 64 65 65 65 67 68 70 71 71 71
30 30 30 31 31 31 32 32 33 34 35 35 36 36 37 37 37 37 38 39 41 44 46 49 51 53 54 55 55 56 55 54 52 52 52 52 50 49 47 46 45 43 42 42 42 42 42 41 42 42 42 42 43 43 43 44 44 45 45 47 49 51 52 53 54 54 54 55 57 59 60 60 61 62 63 65 66 66 66 67 68 70 71 72 72
31 31 32 33 33 34 35 35 35 35 35 36 36 36 36 36 35 35 36 37 39 41 43 46 48 49 51 51 52 52 51 49 47 46 46 46 45 44 43 42 42 41 41 41 41 42 42 42 42 42 43 43 43 44 45 45 46 47 48 50 51 52 53 54 54 54 55 57 58 59 60 61 61 62 64 65 66 67 68 68 68 69 71 72 73
33 34 35 36 37 37 38 38 37 37 36 36 36 36 36 35 35 35 35 36 37 39 40 42 44 45 46 47 47 47 47 46 45 44 44 44 44 43 43 42 42 41 42 42 42 42 42 42 43 43 43 44 44 45 46 47 48 49 51 52 53 53 53 54 54 55 56 58 59 60 61 61 62 63 64 65 66 68 68 69 69 70 70 71 73
36 37 38 39 40 40 40 40 40 38 37 36 36 36 36 36 36 36 36 36 37 38 39 40 41 42 43 43 44 44 44 44 44 44 43 43 43 43 42 42 42 42 42 42 42 43 43 43 43 44 45 45 46 47 48 49 49 51 52 53 53 53 53 54 55 56 58 59 60 61 61 62 62 63 64 66 67 68 69 69 70 70 70 71 72
38 39 39 39 40 41 42 42 41 39 37 36 36 36 37 37 37 37 38 38 38 38 39 39 40 40 41 41 41 42 42 42 42 42 42 42 42 42 42 42 42 42 42 42 43 43 44 44 45 46 46 47 47 48 49 49 50 51 52 53 53 53 54 55 56 57 59 60 61 61 62 62 63 64 65 66 67 68 69 70 70 71 71 71 72
38 37 37 38 40 42 43 43 42 39 37 36 36 37 37 38 38 39 39 39 39 39 39 40 40 39 39 39 39 39 39 40 40 40 40 40 41 41 41 41 42 42 42 43 44 44 45 45 46 47 47 48 48 49 49 50 51 52 53 53 54 54 55 56 57 58 60 61 61 62 63 63 64 65 66 67 68 69 70 71 71 71 71 72 73
38 37 38 39 41 43 44 43 42 40 37 36 36 37 38 39 39 40 40 40 40 40 40 40 40 40 40 39 39 39 40 40 40 40 40 41 41 41 41 41 42 42 43 43 44 44 45 46 47 47 48 48 49 50 50 51 52 53 54 54 55 55 56 57 58 59 61 62 62 63 63 64 65 66 67 68 69 70 71 71 71 71 72 72 73
40 39 39 41 43 43 43 42 42 41 39 38 37 38 38 39 39 39 39 40 40 41 41 41 41 42 42 42 41 41 42 42 42 42 41 41 41 42 42 42 42 43 43 44 44 45 46 46 47 48 49 49 50 51 52 53 53 54 55 56 57 57 58 59 59 61 62 63 63 64 65 65 66 67 68 69 70 71 71 71 71 71 72 73 73
43 42 42 43 44 43 43 43 42 42 41 40 39 39 39 39 39 39 39 40 40 40 41 42 43 43 43 43 42 42 42 42 42 42 42 42 42 42 43 43 44 44 44 45 45 46 47 48 48 49 50 51 52 53 54 55 56 57 58 58 58 59 59 60 61 62 63 64 65 66 66 67 68 68 69 70 71 71 72 72 71 71 72 72 73
45 44 44 43 43 43 43 43 43 42 42 41 40 39 39 40 40 40 40 40 41 41 41 42 43 43 43 42 42 42 42 42 43 43 43 43 43 43 44 45 45 46 46 47 48 48 49 50 50 51 52 54 55 56 57 58 59 60 60 60 60 60 60 61 62 63 64 65 66 67 68 68 69 69 70 71 72 72 72 72 72 72 72 72 73
45 45 44 42 42 43 43 43 43 43 42 42 41 41 40 40 41 41 42 42 42 42 42 42 42 42 42 41 41 41 42 43 43 43 43 43 44 44 45 46 46 47 48 49 50 50 51 52 53 54 55 56 58 58 59 60 61 62 62 61 61 61 62 63 64 65 66 67 68 68 68 69 69 70 71 72 72 73 73 73 72 72 72 72 73
45 44 43 42 42 43 43 43 43 43 43 42 42 42 41 41 41 42 43 43 43 42 42 42 42 42 42 42 42 42 43 43 44 44 44 45 45 46 46 47 47 48 49 50 51 52 53 53 54 55 57 58 59 60 61 62 63 63 63 62 62 63 64 65 66 66 67 68 69 69 69 70 70 70 71 72 73 73 73 73 73 72 72 73 73
45 44 43 42 43 42 42 43 43 43 44 44 43 43 42 42 42 42 43 43 43 43 43 43 43 43 43 43 44 44 44 44 45 45 46 47 47 48 48 49 49 50 51 52 52 53 53 54 55 57 58 59 60 61 61 63 64 64 64 64 64 64 66 67 67 68 69 69 69 70 70 70 71 71 71 72 73 74 74 73 73 73 73 73 73
44 43 43 42 42 42 43 44 44 45 46 45 45 44 44 43 43 43 44 44 44 44 44 44 44 44 44 45 45 46 46 46 47 47 48 49 49 50 50 51 51 52 53 53 54 54 54 55 56 58 59 60 61 62 63 64 65 65 65 65 65 66 68 68 69 69 70 70 70 71 71 71 71 71 71 72 73 74 74 74 74 74 73 72 72
44 44 43 42 42 43 44 45 46 47 47 47 46 46 45 45 45 45 46 46 46 46 46 46 46 47 47 48 48 48 48 48 48 49 50 51 52 52 53 53 54 55 55 55 55 56 56 57 58 59 60 61 62 63 65 66 66 67 67 67 67 68 69 69 69 69 70 71 71 71 71 71 71 72 72 72 73 75 75 76 75 73 72 72 72
45 45 45 45 45 46 46 47 47 48 48 48 47 47 47 47 47 47 48 48 48 49 49 49 50 50 50 50 50 50 50 50 50 51 52 53 54 55 56 56 57 57 57 57 57 57 58 58 59 60 61 62 64 65 66 67 67 67 68 68 68 69 69 70 69 70 71 72 72 71 71 71 72 72 73 73 74 75 76 76 75 73 72 72 71
47 47 47 47 47 47 47 47 47 48 48 49 49 48 48 48 49 49 50 50 51 52 52 53 52 52 52 52 52 52 52 53 54 54 56 57 57 58 59 60 60 60 60 60 60 60 60 61 61 62 63 64 65 66 67 68 68 68 68 68 69 69 70 70 70 70 71 71 71 71 71 72 72 73 74 74 74 75 77 76 75 73 72 72 71
47 48 48 48 48 48 48 48 48 49 49 49 50 50 50 50 50 51 51 52 53 54 55 55 55 55 55 55 55 55 56 56 57 58 59 60 60 61 62 62 63 63 63 63 63 63 63 63 64 65 65 66 67 68 68 68 68 68 68 69 69 69 69 69 69 70 71 71 71 71 72 73 73 74 75 75 76 77 77 76 74 73 72 72 71
48 49 49 49 50 50 50 49 49 50 50 51 51 51 52 52 52 52 53 54 55 56 57 57 58 58 58 58 58 58 59 59 60 61 62 62 63 64 65 65 66 66 66 66 66 66 66 66 67 67 67 68 69 69 69 69 69 68 68 68 68 68 67 68 68 70 71 71 71 72 73 74 75 76 76 77 77 78 77 75 74 73 72 72 71
50 50 50 51 51 51 51 50 50 50 51 52 52 53 53 53 54 54 55 56 57 57 58 59 60 60 61 61 61 60 61 61 62 62 63 64 64 65 66 67 68 68 68 69 69 69 69 69 69 70 70 70 71 71 70 70 69 69 68 68 67 67 67 68 69 70 70 71 72 73 75 76 76 77 77 78 78 78 77 76 74 74 73 72 71
51 51 51 52 53 53 53 52 52 52 52 53 53 54 54 55 55 56 57 58 58 59 60 61 62 62 63 63 63 63 63 64 64 64 65 65 66 67 68 68 69 70 70 70 71 71 71 71 71 71 72 72 72 72 72 71 70 70 69 68 68 67 68 69 69 70 71 72 74 75 76 77 78 78 78 78 78 78 78 76 75 74 73 72 71
53 53 53 53 54 55 55 55 54 54 54 54 54 55 55 56 57 58 58 60 60 61 62 63 63 64 65 65 66 66 66 66 67 67 67 67 68 68 69 70 71 71 71 72 72 72 72 72 72 73 73 73 73 73 72 72 71 71 70 69 69 69 69 70 70 71 73 75 76 77 78 78 78 78 78 78 79 79 79 77 76 75 74 73 72
55 55 54 55 56 56 57 57 57 57 56 56 56 56 56 57 58 59 60 61 62 63 64 65 65 66 66 67 68 68 69 69 69 69 69 69 69 69 70 71 72 72 73 73 73 73 74 73 74 73 73 73 73 73 72 72 72 72 71 71 70 70 71 71 72 73 75 77 77 78 78 78 78 78 78 79 80 80 80 79 77 76 75 74 74
58 57 56 56 57 58 58 58 59 59 58 58 57 57 57 58 60 61 62 63 64 65 66 67 68 68 69 69 70 71 71 71 71 70 70 70 70 70 71 72 72 73 73 74 74 74 74 75 75 75 75 74 74 73 73 72 72 72 72 72 72 72 72 73 73 74 76 77 77 78 78 78 79 79 79 80 81 82 81 80 79 78 77 76 75
60 58 58 58 58 59 59 60 60 60 60 59 59 59 60 61 62 63 64 65 66 67 68 69 70 70 71 72 72 73 73 73 72 72 72 72 72 72 73 73 74 74 74 74 73 73 73 74 74 75 75 75 75 74 74 73 73 73 73 73 74 74 75 75 75 76 76 77 78 79 79 79 79 80 80 81 82 82 82 83 82 81 79 78 77
61 61 60 60 60 60 61 61 61 61 62 62 62 62 62 63 64 65 66 67 68 69 70 70 71 72 73 74 74 74 74 74 74 74 74 74 74 75 75 75 75 74 74 73 72 72 72 73 74 74 75 75 75 75 75 75 75 75 75 75 76 76 77 77 77 78 78 78 79 79 79 79 79 80 81 81 82 83 84 84 82 81 81 81 81
63 62 62 62 61 62 62 62 62 63 63 64 64 64 64 65 66 67 68 69 70 70 71 72 73 74 74 75 75 75 75 75 75 76 76 77 77 77 77 77 76 76 75 74 72 72 72 73 73 74 74 75 75 76 76 76 77 77 77 77 78 78 79 79 80 80 80 80 81 81 81 81 81 82 83 84 84 84 84 83 81 81 83 85 85
64 64 63 63 63 63 63 63 64 64 64 64 64 65 66 66 67 68 69 70 71 72 72 73 74 74 75 75 76 76 76 77 78 78 79 79 79 79 79 79 78 77 76 75 73 72 72 72 73 74 74 75 76 76 77 77 78 79 79 80 80 81 81 82 82 82 82 83 84 84 84 84 84 85 85 85 85 85 84 83 82 84 86 87 87
65 64 64 63 63 63 63 64 64 65 65 65 66 67 68 69 69 70 70 71 72 73 73 73 73 74 75 75 76 77 78 79 79 80 80 81 81 81 80 79 78 78 77 75 74 73 72 72 73 74 74 75 76 77 78 79 80 81 82 82 83 83 83 84 84 85 86 87 87 87 87 87 86 86 86 85 85 85 85 85 85 85 87 87 87
64 64 63 63 63 63 63 64 65 65 66 67 68 69 70 71 71 72 72 73 73 73 73 73 73 73 74 75 76 78 79 79 80 80 81 81 81 81 80 79 78 77 76 75 74 73 73 73 74 74 75 76 77 78 79 80 81 82 83 84 84 85 86 87 87 88 89 89 89 89 89 88 87 87 87 87 86 86 86 86 86 87 87 86 85
64 63 63 63 63 63 63 64 65 66 68 69 70 71 72 72 73 73 73 74 74 74 74 74 74 75 75 75 76 77 79 80 81 81 82 82 81 80 79 78 77 76 75 74 74 74 74 75 75 76 77 78 79 80 80 81 83 84 85 86 87 88 89 90 91 91 91 91 91 90 90 89 89 88 88 88 88 87 87 87 88 88 87 86 84
64 64 64 64 64 64 64 65 67 68 69 70 71 72 72 73 73 74 74 75 75 76 76 77 77 77 78 78 78 79 80 81 82 82 82 81 80 79 79 77 76 76 75 75 76 76 76 77 78 78 79 80 81 82 83 84 86 87 88 90 91 92 93 94 94 94 94 93 92 92 91 91 90 90 90 89 89 88 88 88 89 89 89 88 86
65 65 64 64 65 65 66 67 69 70 71 71 72 72 73 74 74 75 76 77 78 79 80 81 81 82 82 82 82 83 83 83 83 83 82 81 80 78 77 76 76 76 76 77 78 79 79 80 81 82 82 83 85 86 87 88 90 91 93 94 95 96 96 97 97 96 96 95 94 93 92 91 91 91 90 89 89 89 89 89 88 88 88 87 86
65 65 66 66 67 67 68 69 70 71 71 72 73 74 75 76 77 78 79 80 81 82 83 84 85 86 86 86 86 86 86 85 84 83 82 81 79 77 76 76 76 77 78 79 81 82 83 84 85 86 87 88 89 90 91 93 94 95 97 97 98 98 99 99 98 98 97 96 96 95 94 93 92 91 90 89 89 89 88 88 87 87 86 85 83
68 68 67 68 68 69 70 70 71 72 72 73 74 75 77 78 79 80 81 82 84 84 85 87 87 88 89 89 89 88 87 85 84 82 81 80 78 77 77 78 79 80 82 84 85 86 87 88 89 90 91 93 94 95 96 97 98 99 100 100 101 101 100 100 100 99 98 98 97 96 95 93 92 91 89 88 88 87 87 87 86 85 84 82 81
70 69 69 70 70 70 71 71 72 72 73 74 76 77 78 79 81 82 83 84 86 87 88 89 89 90 90 89 88 87 86 85 83 82 80 79 79 79 80 82 83 85 87 88 90 91 92 93 94 95 96 98 99 100 101 102 102 103 104 104 104 103 103 102 101 101 100 100 98 97 95 93 92 90 88 87 86 85 84 84 83 82 81 79 77
71 71 71 71 71 71 72 72 73 74 75 76 77 78 80 81 82 84 85 87 88 89 89 89 89 88 88 87 86 86 85 84 83 81 81 81 82 83 85 86 88 90 91 93 94 96 97 98 99 100 101 102 103 104 105 106 106 107 107 107 107 107 106 105 104 103 101 100 98 96 94 92 90 88 85 83 82 81 80 79 78 77 76 74 72
72 72 72 72 72 72 72 73 74 75 77 77 78 80 81 83 85 86 87 88 88 88 87 87 87 86 86 85 85 84 83 83 82 83 84 85 86 88 89 91 92 94 96 97 99 100 101 102 103 104 105 106 107 107 108 109 109 110 110 110 109 108 106 104 102 100 98 96 94 92 90 88 85 83 81 79 78 76 75 74 73 72 71 69 67
72 72 72 72 73 73 74 75 76 77 78 78 79 81 83 84 85 85 86 86 86 86 86 86 86 86 85 84 83 83 83 83 85 86 88 89 91 92 94 95 97 98 100 101 102 104 105 106 107 107 108 108 109 110 110 111 111 110 110 109 107 105 102 100 98 95 93 90 88 86 84 82 79 77 75 74 73 71 70 69 68 67 65 64 62
73 73 73 73 74 75 76 77 78 79 79 79 80 81 83 84 85 85 86 86 86 87 87 86 85 84 83 83 83 84 85 86 88 90 91 93 94 96 97 99 100 102 103 105 106 107 108 109 109 110 110 111 111 112 111 111 110 109 107 105 103 100 97 94 92 89 86 84 82 79 77 75 73 70 69 67 67 65 64 64 63 62 61 60 59
73 73 74 74 76 77 78 79 80 80 81 82 83 84 85 86 87 88 88 88 88 87 86 85 84 83 83 84 85 86 88 90 92 93 95 96 98 99 101 103 104 105 107 108 109 110 111 111 112 112 112 112 112 112 111 109 108 105 103 100 97 94 90 87 84 81 78 76 74 72 69 67 65 63 62 61 60 59 58 58 58 58 57 57 56
74 74 75 76 77 79 80 80 81 83 84 85 86 87 88 89 90 90 89 89 88 87 86 85 85 85 86 87 88 90 92 93 95 96 98 99 101 103 104 106 108 109 110 111 112 112 113 113 113 113 112 111 110 109 107 105 102 99 96 93 89 86 82 79 76 73 71 69 67 64 62 59 57 56 55 54 53 53 52 52 52 52 52 53 52
75 76 77 78 80 81 82 83 85 86 87 88 89 90 92 92 92 91 90 89 88 87 87 86 87 88 89 90 91 93 94 96 97 99 101 103 104 106 108 109 111 112 113 113 113 113 113 113 112 110 109 107 106 103 100 97 94 91 88 85 82 79 76 73 70 68 66 63 61 59 57 55 53 52 51 50 49 48 47 47 47 47 47 48 48
78 79 80 82 83 84 86 87 88 89 90 91 92 94 95 94 93 91 89 88 88 88 88 89 90 91 92 93 95 96 97 99 101 103 104 106 108 110 112 113 114 114 114 114 113 112 111 109 107 105 103 100 98 94 91 88 85 83 80 77 74 71 69 66 64 62 60 59 57 56 54 53 51 50 49 48 47 45 44 44 43 43 42 43 44
Wind_Direction
281 283 286 288 291 293 295 296 296 295 294 292 290 287 285 284 283 282 281 280 280 280 281 281 281 281 280 280 279 279 279 280 280 280 281 282 282 283 282 281 280 281 283 286 288 290 290 290 290 291 291 289 288 288 289 290 292 293 295 297 298 298 299 300 301 302 302 303 304 305 307 308 309 310 312 312 314 315 316 317 317 318 319 320 321
283 286 288 291 293 295 296 295 295 294 293 292 291 290 288 287 286 285 284 283 283 284 285 286 287 286 284 281 280 279 280 280 280 281 281 280 280 279 278 279 280 283 285 288 289 290 290 290 290 289 288 287 288 289 290 291 293 295 297 297 297 298 299 300 301 301 301 302 304 305 307 308 309 310 311 312 314 315 316 316 317 317 318 319 320
284 286 289 291 292 292 291 291 291 291 291 292 292 291 290 289 288 287 287 286 286 287 287 289 290 290 288 285 283 282 281 281 281 281 281 281 281 281 281 283 285 287 289 290 290 290 289 289 289 288 288 288 289 290 292 294 295 297 297 296 297 298 300 300 300 300 301 302 304 306 307 308 309 310 311 312 314 315 315 315 316 316 317 318 319
285 287 289 289 289 289 289 290 291 292 294 294 294 293 292 290 288 287 287 287 287 287 287 287 288 289 289 288 286 285 283 283 283 283 283 283 284 285 286 287 289 290 291 291 290 289 288 288 288 288 289 290 291 293 294 296 296 296 296 296 297 298 299 299 299 300 301 303 305 307 307 308 309 310 311 312 313 314 314 315 315 316 316 317 318
285 286 286 286 287 288 289 292 293 295 296 296 296 296 294 292 289 287 286 286 286 286 286 287 288 289 290 290 290 289 288 288 287 287 288 288 289 289 290 291 291 291 291 290 289 288 288 288 289 290 291 292 293 294 295 296 295 295 295 296 297 297 297 298 299 300 302 304 306 306 307 308 309 310 311 312 313 313 313 314 314 315 316 316 317
283 283 283 284 286 289 291 294 295 295 295 295 296 296 295 294 291 288 286 286 286 286 287 288 289 291 292 293 295 295 295 295 295 294 293 292 292 292 291 291 291 290 290 290 289 289 290 291 292 293 293 294 295 295 295 295 294 294 295 296 296 296 297 298 299 301 303 304 305 305 307 308 309 310 311 311 312 312 313 314 314 315 315 316 317
280 280 282 285 288 291 294 295 295 295 295 295 295 294 294 294 292 290 289 288 287 287 288 289 290 292 293 295 296 297 298 298 298 297 296 295 294 293 292 292 292 292 293 293 293 293 294 294 295 295 295 296 296 295 295 294 294 295 295 295 295 296 297 299 300 301 302 303 304 305 307 308 309 310 311 311 311 312 313 313 314 314 315 315 317
281 284 287 290 293 295 296 296 295 295 294 294 293 293 293 293 293 292 291 290 288 288 288 288 289 290 291 292 293 295 296 296 295 294 294 294 294 294 294 294 295 295 295 295 295 295 295 296 296 296 296 296 295 295 294 295 295 295 295 295 296 297 298 299 300 301 302 303 304 305 306 308 309 310 310 310 311 311 312 312 313 314 314 315 316
286 289 292 295 297 298 297 297 296 295 294 293 292 291 291 291 292 291 290 288 287 287 287 287 288 288 289 291 292 293 293 293 292 291 291 291 291 291 292 293 293 294 294 295 296 296 297 297 297 297 297 296 295 294 294 295 295 295 295 296 297 298 298 299 299 301 302 302 303 305 306 307 309 309 309 309 310 310 310 311 312 312 313 314 315
289 292 296 298 299 299 298 297 297 295 294 292 290 288 288 288 287 287 286 286 286 286 286 286 287 288 289 289 290 291 291 291 291 291 291 291 291 291 292 293 294 295 296 297 298 298 298 297 296 296 295 294 294 294 295 295 296 296 296 296 297 297 298 298 299 300 301 302 303 305 306 307 308 308 308 308 309 309 309 311 311 311 312 313 314
292 295 297 299 300 299 299 298 297 295 293 290 286 285 284 284 284 284 284 284 284 285 285 286 286 287 288 289 289 290 291 291 292 293 293 294 294 295 296 297 298 298 298 298 298 298 297 296 295 295 294 294 294 295 295 296 296 296 296 296 296 296 297 298 299 300 301 302 304 305 306 306 307 307 307 307 307 307 308 309 310 310 312 313 314
292 294 296 297 298 298 298 297 296 295 292 288 285 283 282 283 283 283 284 284 284 285 286 286 287 288 288 289 290 291 292 293 294 295 296 297 298 299 300 300 300 300 300 299 298 298 297 296 296 295 295 295 295 296 296 296 295 295 295 295 296 296 298 299 299 300 301 302 303 304 304 305 305 305 305 305 305 306 307 308 309 310 312 313 314
289 291 293 294 295 295 295 295 295 293 290 286 284 282 282 282 283 283 284 285 286 287 287 288 288 288 289 290 291 292 293 294 295 296 297 298 298 299 300 301 301 301 300 300 299 299 298 297 297 297 297 297 296 296 295 295 295 294 295 295 296 297 298 299 300 301 301 302 302 303 303 303 304 304 304 304 305 306 307 308 309 311 312 313 313
284 286 289 291 291 291 293 294 293 292 289 284 282 280 280 281 281 283 284 285 286 287 287 288 288 288 289 290 291 292 293 293 294 295 296 297 297 298 299 300 300 300 300 300 300 300 300 299 299 298 298 297 296 295 295 295 295 295 296 296 297 298 298 299 299 300 300 300 301 301 302 302 303 303 303 304 305 305 306 308 310 311 312 312 313
281 284 288 288 289 291 293 293 292 291 288 285 282 281 280 280 281 282 283 285 286 287 288 289 290 290 290 291 292 293 293 294 294 295 296 296 296 297 298 298 298 299 299 299 299 299 299 299 299 298 298 297 296 296 296 296 296 296 296 296 297 297 297 298 299 299 299 300 300 301 301 302 302 302 303 304 304 305 306 308 309 311 311 312 313
280 284 286 287 289 292 293 293 291 289 288 287 285 284 284 284 284 284 285 285 286 287 288 289 290 291 292 293 294 295 295 296 296 296 296 296 297 297 298 298 299 299 299 299 299 299 298 298 298 297 297 297 296 296 296 296 296 295 295 295 296 296 296 297 298 298 298 299 300 300 301 301 302 302 303 303 304 305 306 307 308 310 311 312 313
282 284 285 287 291 293 293 292 291 289 288 288 288 288 288 288 288 288 288 288 288 288 288 289 289 291 292 293 294 295 296 297 296 296 296 297 298 299 299 299 299 299 299 299 298 298 297 297 297 297 296 296 296 296 296 295 295 294 294 294 294 295 296 297 297 297 298 300 300 300 301 301 302 302 303 303 304 305 306 306 308 310 311 312 312
283 284 286 289 291 292 292 292 290 289 288 289 289 290 290 290 290 289 289 289 289 289 289 289 290 290 291 292 293 294 295 295 295 295 296 296 297 298 298 298 298 298 298 297 297 297 296 296 296 296 295 295 295 295 294 293 293 293 293 293 294 295 296 296 297 298 299 299 299 300 301 301 301 302 303 303 304 304 305 306 308 310 311 311 311
283 284 287 290 290 290 291 291 290 289 289 289 289 289 289 289 289 289 289 289 289 289 289 290 290 291 291 292 293 293 293 293 293 293 293 294 295 296 296 296 296 296 297 297 297 296 296 296 295 295 294 294 293 293 293 292 292 292 292 293 294 295 295 296 297 297 298 298 299 300 300 300 301 302 302 302 303 303 304 306 308 309 309 310 311
283 285 287 289 289 290 290 290 290 289 289 288 288 288 288 287 287 287 287 287 287 287 288 288 289 290 291 291 291 291 291 291 291 291 291 292 293 293 294 294 294 295 295 296 296 295 295 294 294 293 293 292 292 292 291 291 291 291 292 293 294 295 295 296 296 297 297 298 299 299 299 299 300 300 301 301 302 303 304 306 307 308 309 310 310
283 285 287 288 288 289 289 289 289 290 289 289 288 287 287 286 286 285 285 285 285 286 286 287 288 288 289 289 289 288 288 288 288 288 289 289 290 291 291 291 291 292 292 293 293 292 292 291 291 291 291 291 290 290 290 290 290 291 292 293 294 295 295 296 296 297 297 297 297 297 298 298 299 299 300 301 302 303 304 305 307 308 309 309 309
283 284 286 287 288 288 288 288 289 290 290 289 288 288 287 287 286 286 285 285 285 285 286 286 287 287 287 287 287 286 286 286 286 287 287 288 288 288 289 288 288 289 289 289 289 288 288 288 288 289 289 289 289 289 289 290 290 291 292 293 294 295 295 296 296 296 296 296 296 296 297 298 298 299 300 300 301 302 304 305 306 307 308 308 308
282 284 286 287 287 288 288 288 289 289 289 289 289 288 288 287 287 286 286 286 286 286 287 287 287 287 287 287 287 287 287 287 288 288 288 288 288 288 288 287 287 287 287 287 287 286 287 287 287 287 287 287 287 288 288 289 291 292 293 294 294 295 295 295 295 295 294 294 294 295 296 297 297 298 299 300 301 301 302 304 306 306 307 307 308
282 284 285 286 287 287 288 288 289 289 289 288 288 288 288 287 287 286 286 287 287 288 289 289 290 289 289 289 290 290 290 290 291 290 290 290 290 290 290 289 289 289 288 287 287 286 286 286 286 286 286 287 288 288 289 291 292 293 294 294 294 294 294 294 293 293 292 292 293 294 295 296 297 298 298 299 300 301 302 304 305 306 307 308 308
282 283 284 285 286 287 287 288 288 289 289 288 288 288 288 287 287 287 287 288 289 290 290 291 291 291 291 292 292 292 292 293 293 293 293 293 293 293 292 292 291 291 290 289 288 287 287 286 287 287 288 289 289 290 291 292 293 293 293 293 293 293 293 292 292 291 291 292 293 294 295 296 296 297 298 299 300 301 303 304 305 306 307 308 308
281 282 283 285 285 285 286 287 287 288 288 288 288 287 287 287 287 287 287 288 288 289 290 290 290 291 291 291 291 292 292 293 294 294 294 295 295 295 295 294 294 293 292 291 290 290 289 289 289 289 290 290 290 291 292 292 292 292 292 292 292 292 291 291 291 291 292 293 294 295 295 296 297 298 299 300 301 302 303 304 306 307 308 308 307
280 281 283 284 284 284 285 285 286 287 287 287 287 286 286 286 286 286 286 286 287 287 288 289 289 289 290 290 290 291 292 293 293 294 294 295 295 295 295 296 296 295 295 294 294 293 293 292 292 291 291 291 291 291 291 291 291 291 291 291 291 291 291 291 291 292 293 294 294 295 296 296 297 299 300 300 301 302 303 305 306 307 308 307 305
279 281 282 283 283 283 284 285 285 285 285 285 285 285 285 285 285 285 285 286 286 287 288 288 289 289 290 290 291 291 292 293 294 294 295 296 296 296 296 296 297 297 297 297 297 296 296 295 294 293 293 292 292 291 291 291 291 291 291 291 291 291 291 291 292 292 293 294 295 295 296 297 298 299 300 300 301 302 304 306 307 307 306 305 303
279 280 281 283 283 283 284 284 283 283 283 283 283 283 284 285 285 285 286 286 287 288 288 289 289 290 290 290 291 292 292 293 294 294 295 295 296 296 296 296 297 297 297 298 298 298 297 296 295 294 293 292 292 292 292 291 291 291 291 291 291 291 291 291 292 293 294 294 295 295 296 297 298 299 300 300 301 302 304 305 306 305 304 303 301
278 279 280 282 282 282 282 282 281 281 282 282 282 283 284 285 286 286 287 287 288 288 289 289 290 290 290 290 291 292 292 293 294 294 294 295 295 294 295 295 295 296 297 297 298 298 297 296 295 294 293 293 292 292 292 291 291 291 291 291 291 291 292 292 292 293 293 294 295 296 297 298 298 299 300 300 301 302 303 304 304 303 302 301 300
277 278 279 280 280 281 280 280 280 280 280 281 282 283 284 285 286 286 287 287 288 289 289 290 290 290 291 291 292 292 293 293 294 294 295 295 294 294 294 294 295 295 296 297 297 297 296 296 295 295 294 293 293 292 292 291 291 291 291 292 292 292 292 292 292 292 293 294 295 296 297 298 298 299 300 300 300 301 302 302 302 301 300 300 299
276 277 277 277 278 278 278 278 278 279 280 281 282 282 283 284 284 285 286 287 288 289 289 289 290 290 291 291 292 293 294 294 295 295 295 295 295 295 295 295 296 296 296 296 296 296 296 295 295 294 293 293 292 292 292 291 291 291 291 292 292 292 293 293 294 294 295 295 296 297 298 298 298 298 298 299 299 299 299 300 300 299 299 298 298
275 275 275 276 276 276 276 277 278 279 280 281 281 282 282 283 284 285 286 287 287 288 289 289 290 291 291 292 293 294 294 295 295 296 296 296 296 296 297 297 297 297 297 296 296 295 295 294 294 293 292 292 291 291 291 291 291 291 292 292 293 294 294 295 296 296 296 296 296 297 297 297 296 296 296 296 296 296 296 297 297 296 296 295 295
273 273 274 274 274 275 276 277 278 279 280 280 281 282 283 283 284 285 286 286 287 288 288 289 290 291 291 292 293 293 294 295 295 296 296 296 297 297 298 298 298 298 297 297 296 295 294 293 293 292 291 291 291 291 291 292 292 293 293 294 294 295 296 296 296 297 296 296 296 296 295 295 294 294 294 294 294 294 294 295 294 293 292 292 292
271 271 272 272 273 274 275 276 277 278 279 280 281 282 283 283 284 284 285 286 287 288 288 289 290 290 291 292 292 293 294 294 294 295 296 296 297 298 299 299 299 298 297 296 295 294 293 292 292 292 292 292 292 292 293 293 294 294 295 295 296 296 296 296 296 296 296 295 295 295 295 295 295 294 294 294 294 293 292 292 291 290 290 290 290
269 269 270 271 272 273 274 275 276 278 279 280 281 281 282 282 283 284 285 285 286 287 288 289 289 290 291 292 292 293 293 293 294 295 296 297 298 299 299 299 298 297 297 295 294 294 293 293 292 292 293 293 293 294 294 295 295 296 296 296 296 296 296 296 295 295 295 295 296 296 296 296 295 293 292 291 290 288 288 287 287 287 287 287 288
268 269 270 271 272 273 274 276 277 278 279 279 280 280 281 282 283 283 284 285 285 287 288 289 290 290 291 292 293 293 294 295 296 297 297 298 299 299 299 298 298 297 296 295 294 294 294 293 293 294 294 295 295 295 296 296 296 296 296 296 295 295 295 295 296 296 296 297 297 296 295 294 293 291 289 288 287 286 285 285 284 284 285 286 287
269 270 272 273 273 275 276 277 278 279 279 279 280 281 282 283 283 284 285 286 287 289 290 291 292 292 293 293 294 294 295 296 297 298 298 298 299 298 298 297 297 296 295 295 294 294 294 294 294 294 295 295 295 295 295 295 295 295 295 296 296 296 297 297 297 298 298 297 296 295 294 293 291 289 288 286 285 284 283 283 282 283 284 285 286
270 272 273 274 275 276 277 278 279 279 280 281 282 283 284 285 286 287 288 290 291 292 293 293 294 294 295 295 295 296 296 297 297 298 298 298 298 298 297 296 296 295 295 295 294 294 294 294 294 294 294 294 294 294 294 295 296 296 297 297 298 298 299 299 299 299 298 297 295 294 293 291 290 288 287 285 284 283 282 282 281 281 282 283 284
271 272 274 275 277 277 278 279 279 280 281 282 284 285 286 288 289 290 291 292 293 294 295 295 296 296 297 297 297 298 298 298 298 298 298 298 298 297 296 296 295 294 294 294 294 294 294 294 294 294 295 295 296 296 297 297 298 299 299 299 300 300 300 300 299 298 297 296 294 293 292 290 288 287 286 285 284 283 282 282 282 282 282 282 283
272 273 275 276 276 277 278 279 280 281 283 284 286 287 289 290 291 292 293 294 294 295 296 296 297 297 298 298 298 298 298 298 298 298 297 297 296 295 294 294 293 293 293 293 293 294 294 295 296 296 297 298 299 299 300 300 301 301 301 301 301 301 300 299 298 297 296 295 293 292 291 289 288 287 286 285 284 283 283 282 282 282 282 282 282
273 274 276 276 277 278 279 280 282 283 284 286 287 289 290 291 292 293 293 294 294 295 296 296 297 297 297 297 297 297 297 297 296 296 295 295 294 293 293 293 293 293 294 294 295 295 296 297 297 298 299 300 301 302 302 302 302 302 302 301 301 300 299 298 297 295 295 294 293 292 291 289 288 287 286 285 284 283 283 282 282 282 282 282 282
274 276 277 278 278 279 280 282 283 285 286 287 289 289 290 291 292 292 293 294 294 295 295 295 296 296 296 296 296 296 296 296 296 295 294 294 294 294 294 295 295 296 296 297 297 298 298 299 300 301 302 303 303 303 303 303 303 302 302 301 300 299 298 297 296 295 294 293 293 292 291 290 288 287 286 285 284 283 283 282 282 282 282 282 282
275 276 277 278 279 280 282 283 285 286 287 288 289 290 290 291 292 292 293 293 293 293 294 294 294 294 294 295 295 295 295 295 295 295 295 295 296 296 297 298 298 299 299 300 300 300 301 302 302 303 303 303 303 303 303 303 302 302 301 300 299 298 297 296 295 294 294 293 292 291 290 290 289 288 287 286 285 284 283 282 282 282 282 282 282
275 276 277 278 280 281 282 283 284 285 287 288 289 290 291 291 291 292 292 292 292 292 293 293 293 293 294 294 294 294 295 295 295 295 296 297 298 299 299 300 300 301 301 301 302 302 303 303 303 303 303 303 303 303 302 302 301 301 300 299 298 297 296 295 294 294 293 292 292 291 290 289 288 288 287 286 285 284 284 283 283 282 282 282 281
274 276 277 278 280 281 282 283 284 285 286 288 289 290 291 291 291 291 291 291 291 292 292 292 293 293 293 293 294 294 294 295 296 297 298 299 299 300 300 301 301 301 302 302 302 302 303 303 303 303 303 303 302 302 301 300 300 299 298 298 297 296 296 295 294 294 293 292 291 290 290 289 288 288 287 286 286 285 285 284 283 283 282 281 281
274 276 277 278 280 281 282 283 284 285 285 287 289 291 292 293 293 292 292 292 292 292 292 292 292 292 293 293 294 294 295 296 298 298 299 300 300 301 301 301 301 301 301 302 302 302 302 302 303 302 302 302 301 300 300 299 298 298 298 297 297 296 296 295 295 294 293 292 291 290 290 289 289 288 288 287 287 286 286 285 284 283 282 281 280
275 276 278 279 280 281 282 283 283 284 285 286 289 291 293 295 295 294 293 292 292 292 292 292 292 292 293 293 294 295 297 297 298 299 299 300 300 300 300 301 301 301 301 301 302 302 302 302 302 301 301 300 300 299 299 298 298 298 298 297 297 297 296 296 295 294 293 292 291 291 290 290 290 289 289 288 288 287 287 286 284 283 283 281 281
275 276 278 279 280 281 282 282 283 284 285 286 288 291 293 295 295 295 293 292 292 292 292 292 292 293 293 294 295 296 297 298 298 299 299 299 300 300 300 300 300 301 301 302 302 302 302 301 301 300 300 299 299 299 298 298 298 298 298 298 297 297 296 295 294 293 292 292 291 291 291 291 290 290 289 289 289 289 288 287 286 284 283 281 280
275 276 278 279 280 281 282 282 283 284 284 285 287 290 292 294 295 294 293 292 292 292 292 292 292 293 294 295 295 296 297 298 298 298 299 299 299 300 300 301 301 301 301 301 301 301 300 300 299 299 299 299 298 298 298 298 298 298 298 298 297 296 295 294 293 293 292 292 291 291 291 291 290 290 289 290 290 290 290 289 289 287 285 282 279
275 276 277 278 279 280 281 282 282 282 283 284 286 289 292 293 294 294 293 292 292 292 292 292 293 293 294 295 296 296 297 297 298 298 299 299 300 300 301 301 301 301 300 300 299 299 299 298 298 298 298 298 298 298 298 298 298 298 298 297 296 295 294 293 292 292 291 291 291 291 291 290 290 289 289 290 291 291 290 290 291 291 289 287 282
Height
5802 5802 5801 5800 5799 5799 5798 5798 5797 5797 5796 5795 5794 5794 5793 5792 5792 5792 5792 5791 5790 5789 5788 5787 5785 5784 5783 5781 5780 5778 5777 5776 5775 5774 5773 5772 5771 5770 5768 5767 5766 5764 5763 5761 5760 5758 5756 5755 5753 5752 5751 5748 5746 5744 5743 5741 5738 5736 5734 5732 5730 5728 5727 5726 5724 5722 5720 5717 5714 5711 5708 5704 5701 5698 5695 5691 5688 5683 5679 5674 5671 5668 5664 5661 5658
5798 5797 5796 5796 5795 5794 5794 5793 5793 5792 5791 5790 5789 5788 5788 5787 5786 5786 5785 5785 5784 5783 5782 5781 5780 5778 5777 5776 5774 5773 5772 5770 5769 5768 5767 5766 5765 5764 5762 5761 5760 5759 5757 5756 5754 5752 5750 5749 5747 5746 5745 5743 5741 5739 5737 5735 5732 5730 5728 5727 5725 5724 5722 5721 5719 5717 5714 5712 5709 5706 5702 5699 5696 5693 5690 5686 5682 5679 5674 5670 5666 5662 5659 5656 5653
5794 5793 5792 5791 5791 5790 5789 5789 5788 5787 5787 5786 5785 5784 5783 5782 5781 5780 5779 5778 5777 5777 5776 5775 5774 5773 5772 5770 5769 5767 5766 5765 5764 5762 5761 5760 5759 5758 5756 5755 5754 5752 5751 5749 5747 5746 5744 5743 5742 5740 5739 5737 5735 5733 5731 5729 5727 5725 5724 5722 5720 5719 5718 5716 5713 5711 5709 5706 5703 5700 5697 5694 5691 5688 5685 5681 5678 5674 5670 5665 5661 5657 5653 5651 5647
5789 5788 5787 5786 5786 5785 5784 5784 5783 5782 5782 5781 5780 5779 5778 5777 5775 5774 5774 5772 5772 5771 5770 5769 5768 5767 5766 5764 5763 5761 5759 5758 5757 5756 5755 5754 5753 5752 5750 5749 5747 5746 5744 5743 5741 5740 5738 5737 5736 5735 5733 5731 5730 5728 5726 5724 5723 5721 5719 5718 5716 5714 5713 5710 5708 5705 5703 5700 5697 5694 5692 5688 5686 5683 5679 5677 5673 5670 5665 5660 5656 5651 5647 5645 5642
5784 5783 5782 5781 5781 5780 5779 5779 5778 5778 5777 5776 5775 5774 5772 5771 5770 5769 5768 5767 5766 5765 5764 5763 5762 5761 5759 5758 5757 5755 5753 5752 5751 5750 5749 5747 5746 5745 5743 5742 5741 5740 5738 5737 5735 5734 5733 5731 5730 5728 5727 5725 5724 5723 5721 5720 5718 5716 5715 5713 5711 5709 5707 5705 5702 5700 5697 5694 5691 5689 5686 5683 5680 5677 5674 5671 5668 5665 5660 5655 5650 5646 5641 5638 5635
5779 5779 5778 5777 5776 5776 5775 5775 5774 5773 5772 5771 5770 5769 5767 5766 5765 5763 5762 5761 5760 5759 5759 5757 5756 5755 5754 5751 5750 5749 5747 5746 5745 5743 5742 5741 5740 5738 5737 5736 5735 5733 5732 5731 5729 5728 5727 5726 5724 5723 5722 5720 5719 5718 5716 5715 5713 5711 5710 5708 5706 5704 5702 5700 5697 5694 5691 5688 5686 5683 5681 5678 5675 5672 5669 5666 5663 5659 5655 5650 5644 5640 5636 5632 5628
5775 5774 5774 5773 5773 5772 5771 5771 5770 5769 5768 5766 5765 5764 5762 5761 5759 5758 5757 5756 5755 5754 5753 5752 5750 5749 5748 5746 5744 5743 5742 5740 5739 5738 5736 5735 5734 5732 5731 5730 5729 5728 5727 5725 5724 5723 5722 5721 5720 5718 5717 5716 5714 5713 5711 5710 5708 5706 5705 5703 5701 5698 5696 5694 5691 5689 5686 5683 5680 5677 5675 5672 5670 5667 5663 5660 5657 5654 5650 5645 5639 5633 5629 5625 5622
5771 5770 5770 5769 5769 5768 5767 5767 5766 5764 5763 5762 5760 5759 5757 5756 5755 5753 5752 5751 5750 5749 5747 5746 5745 5744 5743 5742 5740 5739 5738 5736 5735 5734 5732 5730 5729 5728 5727 5726 5724 5723 5722 5721 5720 5719 5717 5716 5715 5713 5712 5711 5709 5707 5706 5704 5703 5701 5700 5698 5695 5693 5691 5688 5686 5683 5680 5677 5674 5672 5669 5667 5664 5661 5657 5654 5650 5647 5645 5641 5636 5629 5623 5617 5615
5767 5766 5766 5765 5764 5764 5763 5762 5761 5759 5758 5757 5756 5754 5753 5752 5750 5749 5747 5746 5745 5744 5742 5741 5740 5739 5738 5737 5736 5734 5733 5732 5731 5730 5728 5726 5725 5724 5723 5721 5720 5719 5718 5717 5715 5714 5712 5711 5709 5708 5706 5705 5703 5702 5700 5699 5698 5696 5694 5692 5690 5688 5685 5682 5680 5677 5674 5671 5668 5666 5664 5661 5658 5655 5651 5648 5644 5640 5637 5635 5631 5626 5620 5612 5608
5763 5762 5761 5760 5759 5759 5757 5756 5755 5754 5753 5752 5751 5750 5748 5747 5745 5744 5742 5741 5740 5739 5737 5736 5735 5734 5733 5732 5731 5730 5728 5727 5726 5724 5723 5722 5721 5719 5718 5717 5715 5714 5713 5711 5710 5708 5707 5705 5704 5702 5701 5700 5698 5697 5695 5694 5692 5691 5689 5686 5684 5682 5679 5677 5674 5671 5668 5665 5663 5660 5658 5655 5652 5649 5645 5641 5638 5634 5630 5628 5624 5619 5615 5609 5602
5759 5757 5756 5755 5754 5753 5751 5750 5750 5748 5748 5747 5745 5744 5743 5742 5740 5739 5737 5736 5734 5733 5732 5731 5730 5729 5728 5727 5725 5724 5723 5722 5721 5719 5718 5717 5716 5714 5713 5712 5710 5709 5708 5706 5705 5703 5702 5701 5699 5698 5696 5695 5693 5691 5690 5688 5687 5685 5682 5680 5678 5676 5673 5671 5668 5665 5662 5660 5657 5655 5652 5649 5646 5643 5639 5635 5631 5627 5623 5620 5617 5612 5609 5604 5598
5753 5752 5751 5750 5749 5748 5746 5745 5744 5743 5743 5741 5740 5739 5738 5736 5735 5734 5733 5731 5730 5729 5727 5726 5725 5724 5722 5721 5720 5719 5718 5717 5715 5714 5713 5712 5711 5709 5708 5707 5706 5704 5703 5702 5700 5699 5697 5696 5694 5693 5691 5689 5688 5686 5684 5683 5681 5679 5676 5674 5672 5669 5667 5664 5662 5659 5656 5654 5651 5649 5646 5643 5640 5636 5632 5628 5624 5620 5616 5613 5610 5606 5601 5598 5594
5748 5747 5746 5745 5744 5743 5742 5741 5740 5739 5738 5737 5735 5734 5733 5732 5730 5729 5728 5727 5725 5724 5722 5721 5720 5718 5717 5716 5715 5713 5712 5711 5710 5709 5708 5707 5705 5704 5703 5702 5701 5699 5698 5697 5695 5694 5693 5691 5689 5687 5686 5684 5682 5680 5679 5677 5675 5672 5670 5667 5665 5663 5660 5658 5656 5653 5650 5647 5645 5643 5639 5636 5632 5629 5625 5621 5616 5613 5609 5606 5602 5599 5594 5590 5587
5743 5742 5742 5741 5739 5738 5737 5736 5735 5734 5733 5732 5731 5730 5728 5727 5726 5724 5723 5722 5720 5719 5718 5716 5715 5714 5712 5711 5710 5708 5707 5705 5705 5703 5702 5701 5700 5699 5698 5697 5696 5694 5693 5692 5690 5689 5687 5686 5684 5682 5680 5679 5677 5675 5673 5671 5668 5666 5663 5661 5659 5656 5654 5652 5649 5647 5644 5641 5638 5635 5632 5629 5625 5621 5617 5613 5609 5605 5602 5599 5595 5591 5587 5582 5578
5738 5737 5737 5736 5734 5733 5732 5732 5730 5729 5728 5727 5726 5725 5724 5722 5721 5720 5719 5717 5716 5714 5713 5712 5710 5709 5708 5706 5705 5703 5702 5701 5700 5698 5697 5696 5695 5694 5693 5691 5690 5689 5688 5686 5685 5683 5682 5680 5678 5677 5675 5673 5671 5668 5666 5664 5661 5659 5656 5654 5652 5650 5648 5645 5643 5640 5637 5634 5631 5628 5625 5621 5617 5613 5610 5606 5602 5598 5595 5592 5588 5584 5580 5575 5570
5733 5733 5732 5730 5729 5728 5727 5726 5725 5724 5723 5722 5721 5720 5719 5718 5717 5715 5714 5712 5711 5710 5708 5707 5706 5704 5703 5701 5700 5698 5697 5696 5695 5693 5692 5691 5690 5688 5687 5686 5685 5683 5682 5681 5679 5677 5675 5674 5672 5670 5668 5666 5664 5662 5659 5657 5654 5652 5649 5647 5645 5643 5641 5639 5636 5633 5630 5627 5624 5620 5617 5613 5610 5606 5602 5598 5594 5591 5587 5584 5581 5577 5573 5568 5563
5728 5728 5726 5725 5724 5723 5722 5721 5719 5718 5717 5716 5716 5715 5714 5713 5712 5710 5709 5707 5706 5705 5703 5702 5701 5699 5698 5696 5695 5693 5691 5690 5689 5688 5686 5685 5684 5683 5682 5681 5679 5678 5676 5675 5673 5671 5669 5667 5666 5664 5662 5659 5657 5655 5653 5650 5647 5644 5642 5640 5639 5636 5635 5632 5629 5626 5623 5620 5616 5613 5609 5606 5602 5598 5594 5590 5587 5583 5579 5575 5573 5569 5565 5561 5557
5723 5722 5721 5720 5719 5717 5716 5715 5714 5713 5712 5711 5710 5709 5708 5707 5706 5705 5704 5702 5701 5700 5698 5697 5695 5694 5692 5691 5690 5688 5686 5685 5684 5682 5681 5680 5679 5678 5676 5675 5674 5672 5671 5669 5667 5665 5663 5661 5659 5657 5654 5652 5650 5648 5645 5642 5639 5637 5635 5633 5632 5630 5628 5625 5621 5619 5615 5612 5608 5605 5602 5598 5594 5590 5586 5582 5578 5575 5571 5567 5564 5561 5557 5553 5550
5717 5717 5716 5714 5713 5712 5711 5710 5709 5708 5706 5705 5704 5703 5702 5701 5701 5700 5698 5697 5696 5694 5693 5691 5690 5688 5687 5685 5684 5682 5681 5679 5678 5677 5675 5674 5673 5672 5670 5669 5667 5666 5664 5662 5660 5658 5656 5654 5652 5649 5647 5644 5642 5640 5638 5634 5631 5630 5628 5626 5625 5623 5620 5617 5614 5611 5608 5604 5600 5597 5593 5589 5585 5582 5578 5573 5569 5566 5563 5559 5556 5553 5549 5545 5541
5712 5711 5710 5709 5707 5707 5706 5704 5704 5702 5701 5700 5699 5698 5697 5696 5695 5694 5693 5691 5690 5689 5687 5686 5684 5682 5681 5679 5678 5676 5675 5673 5671 5670 5668 5667 5666 5664 5663 5662 5660 5658 5657 5655 5653 5651 5649 5647 5644 5642 5639 5637 5634 5632 5630 5627 5624 5622 5620 5619 5618 5615 5612 5609 5606 5603 5600 5596 5592 5588 5585 5581 5577 5573 5570 5565 5561 5557 5554 5551 5548 5544 5541 5536 5532
5706 5705 5704 5703 5702 5701 5700 5699 5698 5697 5696 5695 5694 5693 5692 5690 5689 5688 5687 5686 5684 5683 5681 5680 5678 5676 5674 5673 5671 5670 5668 5666 5664 5662 5661 5659 5658 5656 5655 5653 5652 5650 5649 5647 5645 5643 5641 5638 5636 5634 5631 5629 5626 5624 5622 5619 5616 5614 5613 5612 5610 5607 5604 5601 5598 5595 5591 5587 5583 5580 5576 5573 5569 5565 5561 5557 5552 5548 5545 5543 5539 5536 5532 5528 5524
5700 5699 5698 5697 5696 5696 5695 5694 5693 5692 5690 5690 5688 5687 5686 5685 5684 5683 5681 5680 5679 5677 5675 5674 5672 5670 5668 5666 5665 5663 5661 5659 5657 5655 5654 5652 5650 5648 5647 5645 5643 5642 5640 5639 5637 5634 5632 5630 5627 5625 5622 5620 5617 5615 5613 5611 5609 5607 5605 5604 5601 5598 5595 5592 5589 5586 5582 5577 5574 5571 5568 5564 5560 5556 5552 5548 5544 5540 5537 5534 5531 5527 5524 5520 5516
5693 5693 5692 5691 5691 5690 5689 5688 5687 5686 5684 5684 5682 5681 5681 5679 5678 5677 5675 5674 5673 5671 5670 5668 5666 5664 5662 5660 5659 5657 5655 5654 5652 5650 5647 5645 5643 5641 5639 5637 5635 5634 5632 5630 5628 5626 5624 5621 5618 5616 5613 5611 5609 5606 5604 5603 5601 5600 5598 5595 5592 5589 5586 5583 5580 5576 5572 5568 5565 5562 5559 5555 5551 5547 5543 5540 5537 5533 5529 5525 5522 5519 5515 5512 5508
5687 5687 5686 5685 5684 5683 5682 5681 5680 5679 5678 5677 5676 5675 5674 5673 5672 5671 5670 5669 5667 5666 5665 5663 5661 5660 5658 5656 5654 5652 5650 5648 5646 5644 5642 5640 5637 5635 5633 5631 5628 5627 5625 5623 5620 5618 5616 5613 5610 5607 5605 5604 5601 5599 5597 5595 5594 5592 5589 5586 5583 5580 5576 5573 5570 5566 5562 5559 5556 5553 5550 5546 5542 5538 5535 5532 5528 5525 5520 5517 5514 5510 5507 5503 5499
5680 5680 5679 5678 5678 5677 5676 5675 5674 5673 5672 5671 5670 5669 5668 5667 5666 5665 5664 5663 5662 5660 5659 5658 5656 5654 5652 5651 5649 5647 5645 5643 5641 5639 5637 5634 5632 5629 5627 5625 5622 5620 5618 5615 5613 5611 5608 5606 5603 5601 5598 5597 5594 5592 5590 5588 5587 5584 5581 5577 5573 5570 5567 5563 5559 5556 5552 5549 5547 5544 5541 5537 5533 5530 5526 5523 5519 5516 5512 5509 5505 5502 5498 5494 5490
5673 5673 5672 5671 5671 5670 5669 5668 5667 5666 5665 5664 5663 5662 5661 5660 5659 5658 5657 5656 5655 5654 5652 5651 5650 5648 5646 5644 5642 5640 5638 5637 5635 5633 5631 5628 5626 5623 5621 5618 5616 5613 5611 5609 5606 5604 5602 5600 5597 5594 5592 5589 5586 5584 5582 5580 5578 5575 5572 5568 5564 5561 5557 5553 5549 5546 5543 5540 5538 5535 5531 5527 5524 5521 5517 5514 5510 5507 5503 5500 5497 5493 5490 5486 5482
5666 5666 5665 5664 5664 5663 5663 5662 5661 5660 5658 5657 5656 5655 5654 5653 5652 5651 5649 5648 5647 5646 5645 5643 5642 5640 5638 5637 5635 5633 5631 5630 5628 5626 5623 5621 5619 5616 5614 5611 5609 5606 5604 5602 5600 5598 5595 5593 5590 5587 5584 5581 5578 5576 5573 5571 5568 5565 5563 5559 5555 5552 5548 5544 5540 5537 5534 5531 5528 5525 5521 5518 5515 5512 5508 5505 5501 5497 5494 5491 5488 5484 5480 5477 5474
5659 5659 5658 5657 5657 5656 5656 5655 5653 5652 5651 5650 5649 5648 5647 5646 5645 5643 5642 5641 5640 5638 5637 5635 5634 5632 5630 5629 5627 5625 5623 5621 5619 5617 5615 5613 5610 5608 5605 5603 5600 5598 5596 5594 5592 5590 5587 5585 5581 5578 5575 5572 5569 5566 5564 5561 5558 5556 5553 5550 5546 5543 5539 5535 5531 5528 5524 5521 5518 5515 5511 5508 5506 5502 5499 5495 5491 5487 5484 5482 5478 5475 5471 5468 5466
5652 5651 5651 5650 5650 5649 5648 5647 5646 5645 5643 5642 5641 5640 5639 5639 5638 5636 5635 5634 5632 5631 5629 5627 5626 5624 5622 5620 5618 5617 5615 5612 5611 5609 5606 5604 5601 5599 5597 5594 5591 5589 5587 5585 5583 5580 5578 5576 5572 5569 5565 5562 5559 5557 5554 5551 5548 5545 5543 5540 5537 5534 5530 5526 5522 5518 5514 5511 5509 5505 5502 5499 5496 5492 5489 5485 5481 5477 5474 5472 5469 5466 5462 5459 5457
5644 5643 5643 5643 5642 5642 5641 5639 5638 5637 5635 5634 5633 5632 5632 5631 5630 5629 5628 5626 5624 5623 5621 5619 5618 5616 5614 5612 5610 5609 5607 5604 5602 5600 5598 5596 5594 5591 5589 5586 5582 5579 5577 5575 5573 5571 5568 5565 5562 5559 5556 5553 5550 5547 5544 5542 5539 5536 5533 5530 5528 5524 5520 5517 5513 5509 5505 5502 5499 5496 5493 5489 5486 5482 5479 5475 5471 5467 5464 5462 5459 5457 5453 5450 5447
5637 5636 5636 5635 5634 5634 5633 5631 5630 5629 5628 5627 5626 5625 5624 5623 5622 5621 5619 5617 5615 5614 5612 5611 5609 5607 5605 5603 5601 5599 5598 5596 5593 5590 5588 5587 5585 5582 5580 5577 5574 5571 5568 5566 5564 5561 5558 5555 5552 5549 5546 5543 5540 5537 5534 5532 5529 5526 5523 5520 5517 5514 5511 5508 5504 5500 5496 5492 5489 5486 5483 5479 5475 5472 5469 5465 5461 5457 5454 5452 5449 5447 5444 5441 5438
5629 5628 5628 5627 5626 5625 5624 5623 5622 5621 5620 5620 5618 5617 5616 5615 5613 5612 5610 5608 5606 5604 5603 5601 5600 5598 5596 5594 5592 5590 5588 5586 5584 5582 5579 5577 5575 5573 5571 5568 5565 5562 5559 5557 5554 5551 5548 5545 5542 5539 5536 5533 5530 5527 5524 5521 5519 5516 5513 5510 5507 5504 5501 5497 5494 5490 5486 5482 5478 5475 5472 5469 5465 5462 5458 5455 5451 5448 5445 5442 5439 5436 5433 5430 5428
5620 5620 5619 5618 5617 5616 5616 5615 5614 5613 5612 5611 5610 5609 5608 5606 5604 5603 5601 5599 5597 5595 5593 5592 5590 5588 5587 5585 5583 5581 5578 5576 5574 5572 5569 5567 5565 5563 5561 5558 5555 5552 5549 5547 5544 5541 5538 5535 5532 5529 5526 5523 5520 5516 5513 5511 5508 5505 5503 5500 5497 5494 5490 5486 5483 5479 5475 5472 5468 5464 5461 5458 5455 5452 5448 5445 5442 5439 5435 5432 5429 5426 5423 5420 5417
5611 5611 5610 5609 5608 5607 5607 5606 5605 5604 5604 5603 5602 5601 5599 5597 5596 5594 5591 5590 5588 5586 5585 5583 5581 5579 5577 5576 5574 5572 5569 5567 5564 5561 5559 5556 5554 5551 5550 5547 5544 5541 5539 5536 5534 5531 5527 5524 5521 5517 5515 5512 5509 5506 5503 5500 5497 5495 5492 5489 5486 5483 5479 5475 5472 5468 5465 5461 5457 5454 5451 5448 5445 5442 5438 5435 5432 5429 5425 5422 5419 5415 5412 5409 5406
5602 5602 5601 5600 5599 5599 5598 5598 5597 5596 5595 5595 5594 5593 5591 5589 5588 5585 5583 5581 5579 5577 5576 5574 5572 5570 5568 5566 5564 5562 5560 5557 5554 5551 5548 5546 5543 5541 5539 5536 5533 5531 5528 5525 5523 5520 5517 5514 5511 5507 5504 5501 5498 5495 5492 5489 5486 5484 5481 5478 5475 5472 5468 5464 5461 5458 5454 5450 5446 5443 5440 5437 5434 5430 5426 5422 5420 5417 5413 5410 5408 5405 5402 5398 5396
5592 5592 5591 5591 5591 5590 5590 5589 5588 5588 5587 5587 5586 5584 5583 5581 5579 5577 5575 5573 5570 5569 5567 5565 5563 5562 5559 5557 5555 5552 5550 5548 5544 5541 5539 5536 5533 5531 5528 5526 5523 5520 5517 5514 5511 5509 5507 5504 5501 5497 5494 5491 5488 5484 5481 5478 5475 5472 5470 5466 5463 5460 5457 5454 5450 5447 5443 5439 5435 5431 5428 5425 5422 5418 5413 5410 5408 5405 5402 5399 5397 5394 5390 5387 5385
5583 5582 5582 5582 5582 5581 5581 5580 5580 5579 5579 5578 5576 5575 5573 5572 5570 5568 5566 5564 5562 5560 5558 5556 5555 5553 5550 5548 5545 5542 5539 5537 5534 5532 5529 5526 5523 5520 5517 5514 5512 5509 5506 5503 5500 5498 5496 5493 5490 5488 5484 5481 5477 5474 5470 5467 5464 5461 5458 5455 5452 5449 5446 5442 5439 5435 5431 5427 5423 5419 5416 5412 5409 5405 5400 5397 5395 5392 5390 5387 5384 5381 5379 5376 5373
5574 5574 5574 5573 5573 5573 5572 5572 5571 5570 5569 5568 5566 5565 5563 5562 5560 5559 5557 5554 5552 5550 5548 5546 5544 5542 5540 5538 5535 5532 5529 5525 5523 5520 5518 5514 5512 5509 5506 5503 5500 5497 5495 5492 5489 5487 5485 5482 5479 5477 5474 5471 5468 5464 5460 5457 5454 5450 5447 5443 5440 5437 5433 5429 5425 5422 5418 5414 5410 5406 5402 5399 5395 5391 5387 5384 5381 5379 5377 5374 5372 5369 5367 5365 5363
5566 5565 5565 5565 5564 5564 5563 5562 5561 5560 5558 5557 5556 5554 5553 5551 5550 5548 5546 5543 5541 5539 5537 5535 5533 5530 5528 5526 5524 5522 5518 5515 5511 5509 5505 5502 5500 5497 5494 5492 5489 5486 5484 5481 5478 5476 5474 5471 5469 5466 5463 5460 5457 5454 5450 5447 5443 5439 5434 5430 5426 5423 5419 5414 5411 5407 5403 5399 5396 5392 5388 5384 5381 5377 5373 5370 5368 5366 5363 5361 5358 5356 5354 5353 5351
5557 5557 5556 5556 5555 5554 5553 5552 5551 5549 5548 5546 5545 5544 5542 5540 5538 5536 5534 5531 5529 5526 5524 5522 5520 5518 5515 5513 5512 5509 5506 5503 5500 5497 5494 5491 5488 5485 5483 5481 5478 5476 5473 5471 5468 5466 5464 5461 5458 5455 5452 5448 5445 5441 5437 5434 5429 5425 5421 5416 5412 5408 5404 5399 5395 5391 5388 5384 5380 5376 5373 5369 5366 5362 5359 5358 5355 5352 5349 5347 5345 5344 5342 5340 5339
5549 5548 5547 5547 5545 5544 5543 5541 5540 5539 5537 5535 5534 5532 5530 5528 5526 5524 5522 5520 5517 5514 5512 5509 5507 5505 5503 5500 5498 5496 5494 5492 5489 5486 5483 5481 5478 5475 5473 5470 5468 5466 5463 5461 5458 5455 5453 5450 5446 5442 5439 5435 5431 5427 5423 5419 5415 5411 5407 5402 5398 5393 5389 5384 5379 5375 5371 5368 5364 5361 5357 5354 5351 5348 5346 5344 5342 5338 5336 5334 5332 5330 5329 5328 5326
5539 5538 5537 5536 5535 5533 5532 5530 5529 5528 5526 5524 5523 5521 5519 5517 5515 5513 5510 5508 5505 5503 5500 5498 5495 5493 5491 5489 5487 5485 5483 5481 5478 5475 5473 5470 5467 5465 5462 5460 5457 5455 5452 5449 5446 5443 5440 5437 5433 5429 5425 5421 5416 5412 5408 5404 5400 5396 5392 5387 5383 5378 5374 5369 5363 5359 5355 5351 5348 5345 5342 5338 5336 5333 5331 5329 5327 5324 5322 5320 5318 5317 5316 5315 5314
5528 5528 5526 5525 5524 5523 5521 5519 5518 5517 5515 5513 5512 5510 5508 5506 5504 5501 5499 5497 5494 5492 5490 5487 5484 5482 5480 5477 5475 5473 5471 5469 5467 5464 5461 5459 5456 5453 5450 5448 5445 5442 5439 5435 5432 5429 5426 5423 5419 5414 5410 5405 5400 5396 5393 5389 5385 5381 5376 5372 5367 5363 5358 5353 5348 5343 5339 5335 5332 5329 5326 5322 5320 5318 5316 5314 5312 5310 5308 5306 5304 5303 5302 5302 5301
5518 5517 5515 5514 5513 5512 5510 5509 5507 5506 5504 5503 5501 5499 5497 5495 5493 5491 5488 5486 5483 5481 5479 5476 5474 5471 5469 5466 5464 5461 5459 5457 5454 5452 5449 5447 5444 5441 5438 5434 5431 5428 5425 5421 5417 5413 5410 5406 5403 5399 5395 5390 5385 5381 5377 5373 5369 5365 5360 5356 5352 5347 5342 5337 5333 5328 5323 5319 5316 5313 5310 5307 5304 5302 5301 5299 5297 5295 5293 5292 5290 5289 5289 5288 5288
5507 5506 5505 5504 5502 5501 5500 5498 5497 5495 5494 5492 5490 5488 5486 5484 5482 5480 5477 5475 5473 5470 5468 5465 5463 5460 5457 5455 5452 5450 5447 5445 5442 5440 5437 5434 5431 5428 5425 5421 5418 5414 5411 5407 5403 5399 5395 5391 5387 5384 5380 5375 5370 5365 5361 5357 5353 5349 5345 5340 5336 5331 5327 5322 5317 5312 5308 5304 5301 5298 5294 5292 5289 5288 5286 5284 5282 5281 5279 5278 5277 5277 5276 5276 5276
5496 5495 5494 5493 5492 5490 5489 5488 5486 5485 5483 5481 5479 5478 5475 5473 5471 5469 5466 5464 5462 5459 5456 5454 5452 5449 5446 5444 5441 5438 5436 5433 5430 5428 5425 5421 5418 5415 5411 5408 5405 5401 5397 5393 5389 5385 5380 5376 5372 5368 5365 5360 5356 5350 5346 5341 5336 5332 5328 5324 5320 5315 5311 5306 5301 5297 5293 5288 5285 5283 5280 5278 5276 5274 5272 5270 5269 5268 5267 5266 5265 5265 5264 5264 5264
5485 5484 5483 5482 5481 5480 5478 5477 5475 5474 5472 5470 5469 5467 5465 5462 5460 5458 5455 5453 5450 5447 5445 5443 5440 5437 5435 5432 5429 5427 5425 5421 5418 5415 5412 5408 5405 5402 5398 5395 5392 5388 5384 5379 5375 5371 5366 5362 5357 5353 5349 5344 5340 5335 5330 5325 5320 5316 5312 5308 5303 5299 5295 5290 5286 5282 5278 5274 5271 5269 5267 5265 5263 5262 5260 5258 5257 5256 5255 5254 5253 5253 5253 5252 5253
5474 5473 5472 5471 5470 5469 5467 5466 5465 5463 5461 5459 5457 5455 5453 5451 5448 5446 5443 5441 5438 5435 5433 5430 5428 5425 5423 5420 5418 5415 5412 5409 5406 5403 5399 5396 5393 5389 5385 5382 5378 5374 5370 5366 5361 5356 5351 5347 5342 5337 5332 5328 5323 5318 5313 5308 5304 5299 5295 5291 5287 5283 5280 5275 5272 5268 5264 5261 5258 5256 5255 5253 5252 5250 5249 5248 5246 5245 5245 5244 5243 5242 5242 5242 5242
5464 5463 5462 5461 5460 5458 5457 5455 5453 5451 5450 5448 5445 5443 5441 5438 5436 5433 5431 5428 5426 5423 5421 5418 5416 5413 5411 5408 5406 5403 5400 5397 5394 5390 5387 5383 5380 5376 5372 5368 5364 5360 5356 5351 5346 5341 5336 5331 5326 5321 5316 5311 5307 5302 5297 5293 5288 5284 5280 5276 5273 5269 5266 5262 5259 5256 5252 5249 5247 5245 5244 5243 5242 5240 5239 5238 5237 5236 5235 5234 5234 5233 5232 5232 5232
5453 5453 5452 5450 5449 5447 5446 5444 5442 5440 5438 5436 5433 5431 5429 5426 5424 5421 5418 5416 5413 5411 5408 5406 5403 5401 5398 5396 5393 5390 5387 5384 5381 5377 5374 5370 5366 5362 5358 5354 5349 5345 5341 5336 5331 5326 5321 5315 5311 5306 5300 5296 5291 5287 5282 5278 5274 5270 5267 5263 5260 5256 5253 5250 5247 5244 5241 5239 5237 5236 5235 5234 5233 5232 5231 5230 5229 5228 5227 5226 5225 5225 5224 5224 5224
5443 5442 5440 5439 5438 5436 5434 5432 5430 5428 5426 5424 5422 5419 5417 5414 5411 5408 5405 5403 5401 5398 5396 5394 5391 5388 5386 5383 5380 5377 5374 5371 5367 5363 5359 5355 5351 5347 5343 5339 5335 5330 5325 5320 5315 5311 5305 5301 5296 5291 5286 5282 5278 5274 5269 5265 5262 5258 5255 5251 5247 5245 5242 5239 5237 5235 5232 5230 5228 5227 5226 5225 5224 5223 5223 5222 5222 5221 5220 5219 5218 5217 5217 5216 5216